San Francisco, CA

4:42 AM PDT on March 28, 2017 (GMT -0700)
San Francisco International

Weather History for KSFO - April, 2014

Change the Weather History Date:

Monday, April 14, 2014

  Actual Average Record
Temperature  
Mean Temperature 60 °F 57 °F  
Max Temperature 68 °F 65 °F 87 °F (1984)
Min Temperature 52 °F 49 °F 39 °F (1950)
Degree Days  
Heating Degree Days 5 8  
Month to date heating degree days 81 125  
Since 1 July heating degree days 1802 2245  
Cooling Degree Days 0 0  
Month to date cooling degree days 6 0  
Year to date cooling degree days 6 1  
Growing Degree Days 10 (Base 50)    
Moisture  
Dew Point 51 °F    
Average Humidity 80    
Maximum Humidity 96    
Minimum Humidity 63    
Precipitation  
Precipitation 0.00 in 0.05 in 0.70 in (1963)
Month to date precipitation 1.20 0.74  
Year to date precipitation 6.90 11.95  
Since 1 July precipitation 8.39  
Sea Level Pressure  
Sea Level Pressure 30.08 in    
Wind  
Wind Speed 12 mph (WNW)    
Max Wind Speed 28 mph    
Max Gust Speed 31 mph    
Visibility 10 miles    
Events      
T = Trace of Precipitation, MM = Missing Value Source: NWS Daily Summary

Daily Weather History Graph

Daily Weather History Graph

Search for Another Location

Airport or City:

Trip Planner

Search our weather history database for the weather conditions in past years. The results will help you decide how hot, cold, wet, or windy it might be!

Date:

Astronomy

Apr. 14, 2014 Rise Set
Actual Time 6:35 AM PDT 7:44 PM PDT
Civil Twilight 6:08 AM PDT 8:11 PM PDT
Nautical Twilight 5:36 AM PDT 8:43 PM PDT
Astronomical Twilight 5:03 AM PDT 9:17 PM PDT
Moon 7:28 PM PDT (4/14) 6:10 AM PDT (4/14)
Length of Visible Light 14h 02m
Length of Day
13h 08m
Full, 100% of the Moon is Illuminated
Apr 14
Full
Apr 15
Full
Apr 22
Last Quarter
Apr 28
New
May 6
First Quarter

Hourly Weather History & Observations

Time (PDT) Temp. Dew Point Humidity Pressure Visibility Wind Dir Wind Speed Gust Speed Precip Events Conditions
12:56 AM 54.0 °F 51.1 °F 90% 30.05 in 10.0 mi WNW 6.9 mph - N/A   Partly Cloudy
1:56 AM 54.0 °F 51.1 °F 90% 30.04 in 10.0 mi WNW 9.2 mph - N/A   Partly Cloudy
2:56 AM 53.1 °F 50.0 °F 89% 30.03 in 10.0 mi West 9.2 mph - N/A   Partly Cloudy
3:56 AM 53.1 °F 50.0 °F 89% 30.04 in 10.0 mi WNW 8.1 mph - N/A   Scattered Clouds
4:56 AM 52.0 °F 50.0 °F 93% 30.05 in 10.0 mi WNW 5.8 mph - N/A   Scattered Clouds
5:56 AM 53.1 °F 50.0 °F 89% 30.06 in 10.0 mi Calm Calm - N/A   Scattered Clouds
6:56 AM 53.1 °F 50.0 °F 89% 30.08 in 9.0 mi Calm Calm - N/A   Overcast
7:42 AM 53.6 °F 51.8 °F 94% 30.10 in 8.0 mi West 10.4 mph - N/A   Overcast
7:56 AM 55.0 °F 51.1 °F 86% 30.10 in 8.0 mi West 8.1 mph - N/A   Overcast
8:56 AM 55.0 °F 51.1 °F 86% 30.11 in 9.0 mi WNW 6.9 mph - N/A   Overcast
9:56 AM 55.9 °F 51.1 °F 84% 30.11 in 9.0 mi WNW 5.8 mph - N/A   Overcast
10:56 AM 59.0 °F 52.0 °F 78% 30.12 in 10.0 mi NNE 5.8 mph - N/A   Mostly Cloudy
11:26 AM 60.8 °F 53.6 °F 77% 30.13 in 10.0 mi NNE 4.6 mph - N/A   Partly Cloudy
11:56 AM 60.1 °F 53.1 °F 78% 30.12 in 10.0 mi ENE 4.6 mph - N/A   Partly Cloudy
12:56 PM 61.0 °F 54.0 °F 78% 30.12 in 10.0 mi East 5.8 mph - N/A   Partly Cloudy
1:56 PM 66.0 °F 54.0 °F 65% 30.10 in 10.0 mi WNW 9.2 mph - N/A   Scattered Clouds
2:56 PM 64.0 °F 52.0 °F 65% 30.09 in 10.0 mi WNW 18.4 mph - N/A   Scattered Clouds
3:56 PM 63.0 °F 52.0 °F 67% 30.06 in 10.0 mi WNW 21.9 mph - N/A   Scattered Clouds
4:56 PM 62.1 °F 51.1 °F 67% 30.05 in 10.0 mi WNW 23.0 mph 31.1 mph N/A   Scattered Clouds
5:45 PM 59.0 °F 51.8 °F 77% 30.05 in 10.0 mi West 24.2 mph 31.1 mph N/A   Scattered Clouds
5:56 PM 59.0 °F 50.0 °F 72% 30.05 in 10.0 mi WNW 20.7 mph - N/A   Scattered Clouds
6:56 PM 55.9 °F 50.0 °F 80% 30.05 in 10.0 mi WNW 21.9 mph - N/A   Mostly Cloudy
7:56 PM 55.0 °F 51.1 °F 86% 30.05 in 10.0 mi West 23.0 mph 29.9 mph N/A   Mostly Cloudy
8:56 PM 55.4 °F 51.8 °F 88% 30.07 in 10.0 mi West 18.4 mph - N/A   Mostly Cloudy
9:56 PM 53.6 °F 50.0 °F 88% 30.09 in 10.0 mi West 19.6 mph - N/A   Mostly Cloudy
10:56 PM 55.0 °F 50.0 °F 83% 30.09 in 10.0 mi West 12.7 mph - N/A   Mostly Cloudy
11:56 PM 54.0 °F 50.0 °F 86% 30.08 in 10.0 mi West 11.5 mph - N/A   Mostly Cloudy